Date,TemperatureHighF,TemperatureAvgF,TemperatureLowF,DewpointHighF,DewpointAvgF,DewpointLowF,HumidityHigh,HumidityAvg,HumidityLow,PressureMaxIn,PressureMinIn,WindSpeedMaxMPH,WindSpeedAvgMPH,GustSpeedMaxMPH,PrecipitationSumIn
2013-1-14,44.6,38.0,30.2,32.6,28.3,24.8,80,68,55,30.06,29.61,8,2,0,0.00
2013-1-15,33.4,29.8,27.9,27.1,24.6,22.6,84,80,74,30.22,30.06,3,1,0,0.00
2013-1-16,35.8,30.8,27.0,30.0,26.1,19.7,89,82,67,30.13,29.70,5,1,0,0.00
2013-1-17,27.7,23.2,19.8,21.2,12.6,6.4,78,63,52,29.93,29.68,8,2,0,0.00
2013-1-18,37.2,28.7,18.9,31.5,20.9,6.9,81,72,56,30.03,29.93,10,4,0,0.00
2013-1-19,40.6,38.3,36.1,37.2,34.3,29.9,90,85,74,29.93,29.53,15,6,0,0.00
2013-1-20,40.8,37.6,35.2,33.9,32.4,30.6,86,81,73,29.75,29.60,7,2,0,0.00
2013-1-21,40.6,38.9,36.3,38.6,35.8,30.4,93,88,75,29.74,29.35,16,8,0,0.00
2013-1-22,41.0,39.5,38.1,38.5,36.4,34.5,92,88,85,29.38,29.21,15,9,0,0.00
2013-1-23,41.2,39.9,37.2,38.1,36.2,33.7,91,86,83,29.22,29.05,13,7,0,0.00
2013-1-24,39.6,37.3,34.3,36.7,34.1,31.6,91,88,81,29.51,29.15,11,3,0,0.00
2013-1-25,34.9,30.1,23.2,31.6,22.0,10.3,88,72,49,29.64,29.48,6,2,0,0.00
2013-1-26,26.2,23.6,20.8,13.9,9.3,4.1,68,54,42,29.90,29.64,5,2,0,0.00
2013-1-27,23.7,21.1,14.4,13.3,5.3,-3.7,70,51,29,30.04,29.90,9,2,0,0.00
2013-1-28,32.7,23.3,13.8,30.7,18.6,1.4,92,82,54,30.03,29.43,19,5,0,0.00
2013-1-29,39.9,36.0,32.5,36.5,33.6,30.5,92,90,87,29.59,29.42,18,5,0,0.00
2013-1-30,42.4,38.5,33.8,38.4,34.9,31.1,92,87,75,29.66,29.44,9,2,0,0.00
2013-1-31,37.2,35.2,32.0,34.8,32.6,29.3,91,90,87,29.81,29.66,12,2,0,0.00
2013-2-1,40.1,38.8,36.5,37.9,36.4,33.6,93,91,86,29.75,29.49,16,7,0,0.00
2013-2-2,39.6,38.6,37.4,36.7,35.8,33.9,92,89,85,29.50,29.02,12,5,0,0.00
2013-2-3,39.9,37.7,35.1,35.5,33.1,31.0,91,83,74,29.32,29.02,13,2,0,0.00
2013-2-4,40.6,38.5,36.5,34.4,32.4,30.1,86,78,67,29.53,29.32,7,3,0,0.00
2013-2-5,41.4,36.7,31.1,34.7,31.9,27.5,89,82,68,29.54,29.49,5,2,0,0.00
2013-2-6,35.4,28.3,24.6,28.9,16.8,10.9,86,62,51,29.63,29.52,9,2,0,0.00
2013-2-7,39.4,33.6,25.0,34.9,30.4,19.8,91,87,77,29.53,29.15,6,3,0,0.00
2013-2-8,40.6,34.4,29.3,33.8,29.9,26.0,90,83,67,29.63,29.36,11,2,0,0.00
2013-2-9,43.2,39.5,34.7,37.5,34.4,31.5,90,82,65,29.35,28.76,15,4,0,0.00
2013-2-10,38.7,34.3,26.8,34.9,24.7,13.9,87,68,55,29.63,28.87,10,3,0,0.00
2013-2-11,38.7,29.9,23.2,27.7,18.4,10.8,78,62,48,29.72,29.62,8,2,0,0.00
2013-2-12,37.0,34.4,30.0,33.6,29.4,25.1,88,82,68,29.73,29.53,6,2,0,0.00
2013-2-13,37.8,33.7,28.4,33.7,29.9,24.6,92,85,71,29.74,29.39,13,3,0,0.00
2013-2-14,39.4,36.0,31.3,35.0,32.3,27.7,90,86,79,29.54,29.09,11,3,0,0.00
2013-2-15,32.0,27.6,21.2,27.6,18.0,7.6,86,67,45,30.05,29.54,6,2,0,0.00
2013-2-16,36.1,28.2,19.8,32.1,20.6,7.4,89,73,48,30.06,29.47,9,3,0,0.00
2013-2-17,34.0,30.5,25.9,31.0,23.3,5.4,89,75,40,29.81,29.48,8,2,0,0.00
2013-2-18,34.7,28.9,25.2,22.9,14.6,7.4,75,55,32,29.86,29.72,7,3,0,0.00
2013-2-19,35.2,31.9,27.1,33.1,26.7,15.9,92,81,60,29.75,28.93,14,5,0,0.00
2013-2-20,35.6,32.1,25.9,32.2,28.8,20.2,91,87,77,29.28,28.89,6,2,0,0.00
2013-2-21,29.5,25.7,20.7,25.4,20.7,16.5,88,81,67,29.34,29.11,8,2,0,0.00
2013-2-22,34.9,31.5,26.4,28.2,21.1,17.7,88,65,52,29.52,29.18,10,3,0,0.00
2013-2-23,38.8,34.5,30.2,31.1,26.5,19.2,91,73,46,29.22,28.98,10,4,0,0.00
2013-2-24,40.1,35.3,31.1,33.0,30.2,26.0,88,81,69,29.56,29.15,8,2,0,0.00
2013-2-25,36.7,34.3,30.2,33.4,30.5,26.1,91,86,71,29.56,29.14,20,7,0,0.00
2013-2-26,39.0,36.8,34.2,35.3,33.4,31.0,92,87,79,29.17,29.07,19,6,0,0.00
2013-2-27,38.7,34.5,31.8,32.6,30.9,28.6,90,86,74,29.18,29.05,6,2,0,0.00
2013-2-28,33.4,31.6,28.9,29.0,26.1,23.3,88,80,70,29.48,29.18,5,2,0,0.00
2013-3-1,39.0,30.3,24.6,26.1,22.4,19.7,85,72,51,29.91,29.48,4,1,0,0.00
2013-3-2,36.7,32.0,23.9,32.1,25.9,20.3,89,78,61,29.91,29.76,11,3,0,0.00
2013-3-3,40.3,37.3,34.9,36.6,34.2,31.6,91,88,82,30.14,29.76,15,7,0,0.00
2013-3-4,41.5,39.8,38.7,36.2,34.6,31.5,88,81,73,30.30,30.14,7,3,0,0.00
2013-3-5,39.4,38.1,36.7,33.1,32.0,30.2,84,78,70,30.20,29.85,5,2,0,0.00
2013-3-6,39.2,36.4,33.4,33.1,31.3,29.4,86,81,71,29.86,29.81,4,1,0,0.00
2013-3-8,39.6,37.3,34.9,31.6,29.1,26.5,78,72,61,29.64,29.45,8,3,0,0.00
2013-3-9,37.0,33.6,30.4,29.5,24.5,16.2,83,69,54,30.20,29.64,8,2,0,0.00
2013-3-10,39.6,35.0,29.5,29.8,21.0,15.5,77,56,40,30.26,30.06,8,2,0,0.00
2013-3-11,38.5,33.2,28.8,21.9,18.3,14.7,68,54,43,30.29,30.21,7,2,0,0.00
2013-3-12,35.6,32.8,29.8,23.1,16.6,11.6,73,51,36,30.21,29.95,7,2,0,0.00
2013-3-13,34.7,29.0,22.5,24.4,18.5,13.3,82,65,47,29.95,29.68,5,2,0,0.00
2013-3-14,35.6,29.8,22.1,31.5,23.7,17.2,91,78,57,29.68,29.58,13,2,0,0.00
2013-3-15,34.2,30.4,25.2,29.5,23.9,17.6,89,77,61,29.80,29.60,6,2,0,0.00
2013-3-16,36.0,28.4,20.5,24.1,19.6,16.3,85,70,52,30.13,29.80,6,1,0,0.00
2013-3-17,37.2,32.2,26.6,24.2,20.1,17.4,76,61,48,30.21,30.07,8,3,0,0.00
2013-3-18,34.7,31.6,26.8,24.9,15.7,9.7,72,52,38,30.07,29.89,8,2,0,0.00
2013-3-19,30.9,27.7,24.8,16.9,9.5,3.6,70,46,37,29.92,29.88,6,2,0,0.00
2013-3-20,34.5,28.8,24.4,15.1,8.0,0.8,54,41,31,30.04,29.89,8,3,0,0.00
2013-3-21,28.6,27.4,25.0,16.8,15.2,12.6,63,59,53,30.13,30.04,6,3,0,0.00
2013-3-27,37.6,36.2,34.3,32.6,30.5,28.5,84,79,71,30.07,29.96,6,3,0,0.00
2013-3-28,39.2,37.7,36.7,35.0,33.2,31.5,87,83,75,29.96,29.57,9,3,0,0.00
2013-3-29,42.6,37.6,32.9,35.4,32.3,29.5,90,81,60,29.91,29.61,4,1,0,0.00
2013-3-30,43.2,37.8,33.1,33.2,29.7,27.1,86,73,54,30.15,29.91,5,2,0,0.00
2013-3-31,39.6,33.8,28.9,32.6,29.1,25.2,89,82,71,30.18,30.13,6,1,0,0.00
2013-4-1,42.1,35.8,30.6,30.1,26.7,23.3,88,70,51,30.13,30.02,8,2,0,0.00
2013-4-2,41.7,35.1,28.4,30.4,25.1,20.6,80,67,50,30.09,30.05,5,2,0,0.00
2013-4-3,40.1,37.3,33.4,33.6,31.6,28.7,89,79,70,30.10,30.06,9,4,0,0.00
2013-4-4,38.7,37.5,34.9,33.2,31.6,28.8,87,79,70,30.06,29.66,13,5,0,0.00
2013-4-5,39.6,37.5,31.6,31.4,27.9,23.3,85,68,57,29.66,29.44,10,4,0,0.00
2013-4-6,39.9,33.8,28.4,29.1,22.9,11.9,83,65,44,29.58,29.40,5,1,0,0.00
2013-4-7,28.6,25.9,23.2,13.8,7.4,2.8,57,45,36,29.78,29.58,7,2,0,0.00
2013-4-8,27.7,22.6,18.3,12.6,6.6,0.3,70,50,35,29.75,29.36,6,2,0,0.00
2013-4-9,21.4,17.8,15.3,13.4,5.0,1.5,72,56,44,29.65,29.25,16,5,0,0.00
2013-4-10,23.5,19.7,16.0,13.2,7.4,4.4,74,58,45,29.98,29.64,13,6,0,0.00
2013-4-11,24.4,21.2,16.9,18.2,12.0,4.9,85,67,46,30.13,29.98,6,2,0,0.00
2013-4-12,30.7,24.5,16.0,15.9,10.1,4.0,80,55,34,30.16,30.08,8,2,0,0.00
2013-4-13,34.5,29.5,22.5,14.1,8.8,4.8,57,41,28,30.41,30.15,8,2,0,0.00
2013-4-17,42.3,37.9,31.6,27.5,19.0,10.1,62,47,27,30.13,30.09,8,3,0,0.00
2013-4-18,43.5,34.4,25.0,29.4,19.6,11.0,73,55,36,30.14,30.08,3,1,0,0.00
2013-4-19,44.8,35.8,27.0,29.1,23.6,18.0,78,61,36,30.30,30.14,7,2,0,0.00
2013-4-20,39.2,36.0,32.7,32.7,28.6,23.1,89,74,52,30.33,30.25,13,3,0,0.00
2013-4-21,37.6,35.1,33.1,31.8,30.4,27.5,90,82,67,30.36,30.16,11,3,0,0.00
2013-4-22,39.4,37.0,33.3,36.1,33.5,29.2,90,87,82,30.40,30.29,14,5,0,0.00
2013-4-23,42.1,40.0,37.9,38.7,36.9,35.2,92,88,83,30.36,30.24,14,4,0,0.00
2013-4-24,49.1,41.5,34.7,39.7,36.2,32.1,91,81,66,30.35,29.87,6,2,0,0.00
2013-4-25,45.0,41.5,36.9,35.7,22.2,13.7,79,46,31,29.88,29.68,11,2,0,0.00
2013-4-26,38.7,36.7,33.8,19.6,13.5,9.5,50,38,31,29.75,29.71,6,1,0,0.00
2013-5-13,111.3,42.1,41.5,37.4,23.8,21.8,82,48,45,29.44,22.00,10,3,0,0.00
2013-5-14,40.3,37.3,34.6,20.4,16.7,13.5,44,42,41,0.00,40.00,8,2,0,0.00
2013-5-15,41.5,28.2,-13.1,21.9,5.4,-47.7,45,37,14,0.00,40.00,15,5,0,0.00
2013-5-16,65.4,11.7,-20.0,32.1,-67.8,-104.1,18,5,11,0.00,0.00,26,6,0,0.00
2013-5-17,32.1,32.1,32.1,-95.7,-98.0,-99.9,0,0,100,0.00,0.00,8,4,0,0.00
2013-5-18,34.2,33.8,33.4,-89.5,-92.9,-99.9,0,0,100,0.00,0.00,21,5,0,0.00
2013-5-19,34.5,34.0,33.7,-85.6,-89.6,-94.9,0,0,100,0.00,0.00,12,2,0,0.00
2013-5-20,34.0,33.9,33.9,-89.7,-89.7,-94.8,0,0,100,0.00,0.00,2,0,0,0.00
2013-5-21,34.0,33.8,33.7,-85.9,-89.9,-94.9,0,0,100,0.00,0.00,16,4,0,0.00
2013-5-22,33.9,33.8,33.6,-85.9,-90.2,-95.0,0,0,100,0.00,0.00,15,4,0,0.00
2013-5-23,33.8,33.7,33.7,-89.8,-94.1,-95.0,0,0,100,0.00,0.00,5,2,0,0.00
2013-5-24,33.8,33.6,33.3,-89.8,-93.3,-95.1,0,0,100,0.00,0.00,10,3,0,0.00
2013-5-25,33.7,33.4,32.9,-89.8,-92.7,-95.3,0,0,100,0.00,0.00,22,8,0,0.00
2013-5-26,33.4,33.1,32.9,-86.2,-91.3,-95.3,0,0,100,0.00,0.00,26,14,0,0.00
2013-5-27,33.8,33.6,33.4,-89.7,-90.9,-95.1,0,0,100,0.00,0.00,25,16,0,0.00
2013-5-28,33.9,33.7,33.4,-89.7,-92.4,-99.9,0,0,100,0.00,0.00,17,6,0,0.00
2013-5-29,34.1,33.9,33.5,-86.0,-92.4,-95.0,0,0,100,0.00,0.00,10,3,0,0.00
2013-5-30,34.3,34.2,34.0,-85.8,-89.3,-94.8,0,0,100,0.00,0.00,4,1,0,0.00
2013-5-31,34.1,34.0,33.8,-82.9,-82.9,-83.0,0,0,100,0.00,0.00,14,6,0,0.00
2013-6-1,34.0,33.9,33.8,-81.7,-83.2,-84.4,0,0,100,0.00,0.00,14,4,0,0.00
2013-6-2,34.1,34.0,33.9,-79.3,-82.4,-84.4,0,0,100,0.00,0.00,22,10,0,0.01
2013-6-3,34.1,34.0,33.9,-75.6,-81.3,-84.3,0,0,100,0.00,0.00,31,18,0,0.05
2013-6-4,34.0,34.0,33.9,-79.3,-82.9,-87.7,0,0,100,0.00,0.00,13,4,0,0.06
2013-6-5,34.0,33.9,33.7,-72.6,-79.6,-84.3,0,0,100,0.00,0.00,27,12,0,0.00
2013-6-6,33.7,33.7,33.6,-75.8,-77.6,-77.6,0,0,100,0.00,0.00,30,19,0,0.01
2013-6-7,33.6,33.5,33.4,-77.6,-78.6,-79.7,0,0,100,0.00,0.00,13,4,0,0.00
2013-6-9,33.6,33.3,33.2,-75.9,-79.0,-79.8,0,0,100,0.00,0.00,16,5,0,0.00
2013-6-10,133.0,81.5,33.3,99.9,11.5,-79.8,78,25,3,30.28,0.00,18,5,0,0.00
2013-6-11,101.3,85.8,59.8,92.8,72.7,53.7,90,66,41,14.77,14.77,15,3,0,0.00
2013-6-12,60.1,52.8,48.4,53.8,48.7,45.5,95,86,73,14.77,14.77,19,5,0,0.00
2013-6-14,32.4,32.3,32.2,-86.7,-93.1,-99.9,0,0,100,0.00,0.00,0,0,0,0.00
2013-6-15,32.5,32.4,32.2,-86.7,-92.0,-104.0,0,0,100,0.00,0.00,0,0,0,0.00
2013-6-16,32.4,32.3,32.1,32.2,-83.7,-99.9,0,0,100,0.00,0.00,0,0,0,0.00
2013-6-17,32.4,32.2,32.1,32.2,-40.0,-99.9,0,0,100,0.00,0.00,0,0,0,0.00
2013-6-18,67.0,44.2,32.1,53.1,17.2,-99.9,96,38,54,14.77,0.00,25,6,0,0.00
2013-6-19,54.3,51.1,48.5,51.5,49.2,46.6,100,93,87,14.77,14.77,21,6,0,0.00
2013-6-20,54.1,50.8,48.3,47.8,43.7,40.3,94,76,62,14.77,14.77,17,6,0,0.00
2013-6-21,55.8,51.8,47.9,48.0,45.5,42.7,95,79,66,14.77,14.77,21,8,0,0.00
2013-6-22,50.8,47.6,45.9,46.9,45.1,42.5,98,90,78,14.77,14.77,18,8,0,0.00
2013-6-23,49.9,47.8,46.5,49.5,47.5,45.9,100,99,95,14.77,14.77,26,15,0,0.00
2013-6-24,55.1,50.9,47.7,52.9,50.1,47.7,100,97,86,14.77,14.77,18,4,0,0.00
2013-6-25,70.1,59.3,49.6,55.3,51.7,48.5,100,77,51,14.77,14.77,12,4,0,0.00
2013-6-26,75.3,60.7,51.0,56.0,52.5,49.3,95,76,47,14.77,14.77,21,6,0,0.00
2013-6-27,56.6,52.8,49.9,52.8,51.1,49.9,100,94,84,14.77,14.77,13,4,0,0.00
2013-6-28,58.3,51.3,48.7,52.8,50.5,48.6,100,97,80,14.77,14.77,8,2,0,0.00
2013-6-29,61.6,55.3,49.9,52.9,50.8,47.8,100,85,70,14.77,14.77,18,4,0,0.00
2013-6-30,55.0,50.4,47.1,50.6,48.4,46.2,99,93,76,14.77,14.77,17,4,0,0.00
2013-7-1,54.4,51.6,47.0,51.8,48.6,45.0,99,89,76,14.77,14.77,16,4,0,0.00
2013-7-2,55.1,50.1,44.7,49.9,47.2,44.7,100,89,76,14.77,14.77,7,2,0,0.00
2013-7-3,54.6,50.0,46.2,50.1,48.5,46.2,100,94,80,14.77,14.77,17,3,0,0.00
2013-7-4,54.6,52.5,50.7,50.8,49.8,48.4,100,90,79,14.77,14.77,7,2,0,0.00
2013-7-5,50.8,50.2,49.6,50.7,50.2,49.6,100,100,100,14.77,14.77,5,2,0,0.01
2013-7-6,56.3,50.4,47.7,52.6,49.6,47.7,100,97,78,14.77,14.77,14,2,0,0.00
2013-7-7,53.5,49.7,47.2,50.8,48.6,47.2,100,96,84,14.77,14.77,7,2,0,0.00
2013-7-8,57.0,52.4,47.7,49.7,46.8,44.7,98,81,66,14.77,14.77,12,4,0,0.00
2013-7-9,62.5,53.5,44.6,50.2,46.6,43.6,97,78,57,14.77,14.77,12,3,0,0.00
2013-7-10,67.0,55.4,45.6,51.3,48.6,45.2,99,79,56,14.77,14.77,13,4,0,0.00
2013-7-11,67.8,56.1,52.6,52.7,51.3,50.3,94,84,58,14.77,14.77,8,2,0,0.00
2013-7-12,61.0,52.1,46.8,52.5,49.8,46.7,100,92,70,14.77,14.77,12,3,0,0.00
2013-7-13,60.2,52.4,46.3,55.5,51.1,46.3,100,95,84,14.77,14.77,22,8,0,0.00
2013-7-14,59.8,55.3,52.6,55.0,53.2,52.3,100,92,82,14.77,14.77,16,7,0,0.00
2013-7-15,59.2,55.0,52.7,54.5,53.5,52.3,100,94,83,14.77,14.77,7,3,0,0.00
2013-7-16,72.0,61.1,54.2,57.7,55.6,53.5,98,83,58,14.77,14.77,16,4,0,0.00
2013-7-17,72.6,61.5,53.4,59.7,56.5,53.2,100,84,63,14.77,14.77,14,5,0,0.00
2013-7-18,69.5,61.2,54.3,60.2,57.1,54.3,100,87,71,14.77,14.77,17,5,0,0.00
2013-7-19,64.8,64.2,63.4,57.4,56.4,55.7,79,75,73,14.77,14.77,20,12,0,0.00
2013-7-20,66.8,61.9,56.2,55.6,53.7,52.1,86,74,63,14.77,14.77,19,5,0,0.00
2013-7-21,70.6,61.8,51.9,54.1,51.1,47.9,96,70,45,14.77,14.77,15,4,0,0.00
2013-7-22,76.5,66.5,57.1,54.0,49.8,46.3,77,56,36,14.77,14.77,15,3,0,0.00
2013-7-23,59.1,53.8,51.5,52.9,50.3,49.0,93,87,76,14.77,14.77,6,3,0,0.00
2013-7-24,70.6,59.9,54.7,57.7,54.8,52.4,95,84,60,14.77,14.77,8,3,0,0.00
2013-7-25,69.4,58.5,53.2,58.4,55.3,52.3,98,89,68,14.77,14.77,8,2,0,0.00
2013-7-26,60.1,57.0,54.5,56.9,55.3,53.9,100,94,86,14.77,14.77,9,2,0,0.00
2013-7-27,60.3,55.9,54.2,57.4,55.4,54.2,100,98,89,14.77,14.77,6,2,0,0.00
2013-7-28,67.6,59.3,55.2,58.8,56.5,54.6,100,90,72,14.77,14.77,9,3,0,0.00
2013-7-29,68.5,61.2,55.5,58.3,56.1,54.1,97,83,66,14.77,14.77,13,4,0,0.00
2013-7-30,70.1,60.0,55.9,59.0,55.3,52.7,95,84,66,14.77,14.77,10,4,0,0.00
2013-7-31,63.8,57.2,52.9,57.1,55.0,52.8,100,92,76,14.77,14.77,14,4,0,0.00
2013-8-1,57.2,55.9,54.6,55.2,54.5,53.5,99,95,88,14.77,14.77,18,9,0,0.00
2013-8-2,56.6,56.2,55.7,55.3,55.0,54.7,98,95,93,14.77,14.77,17,7,0,0.00
2013-8-3,62.4,58.6,54.4,54.9,53.4,52.0,99,83,71,14.77,14.77,22,8,0,0.00
2013-8-4,60.1,56.2,53.5,58.2,55.5,53.5,100,97,90,14.78,14.77,7,2,0,0.00
2013-8-5,59.2,57.1,56.0,56.9,55.8,53.1,100,95,87,14.78,14.77,21,6,0,0.00
2013-8-6,149.9,61.7,55.3,99.9,58.9,53.6,100,91,76,14.79,14.77,29,14,0,0.00
2013-8-7,63.1,61.4,59.7,60.1,59.7,59.3,99,94,89,14.78,14.78,19,7,0,0.00
2013-8-8,62.7,59.5,53.9,60.5,58.1,53.8,100,95,83,14.78,14.78,20,6,0,0.00
2013-8-9,72.9,64.9,59.2,72.1,63.7,59.2,100,96,83,14.78,14.77,12,3,0,0.00
2013-8-10,80.9,76.5,71.0,77.6,74.2,71.0,100,92,80,14.77,14.77,12,3,0,0.00
2013-8-11,82.8,79.9,77.2,82.0,78.2,75.6,100,94,86,14.77,14.77,10,4,0,0.00
2013-8-12,83.3,81.4,80.9,83.3,81.4,80.9,100,100,99,14.77,14.77,11,6,0,0.00
2013-8-13,96.3,92.2,87.3,90.0,87.2,83.9,96,85,78,14.77,14.77,12,5,0,0.00
2013-8-14,103.0,93.2,83.0,98.9,91.6,82.9,100,95,86,14.77,14.77,6,2,0,0.00
2013-8-15,97.8,60.0,36.5,97.2,57.0,32.0,100,89,71,14.77,14.77,8,2,0,0.00
2013-8-16,38.1,37.2,35.8,38.1,36.8,32.7,100,98,84,14.77,14.77,21,10,0,0.00
2013-8-17,39.3,37.7,36.8,38.0,37.1,35.8,100,98,90,14.77,14.77,15,6,0,0.00
2013-8-18,42.4,37.8,34.9,37.4,35.6,33.9,100,92,76,14.77,14.77,13,3,0,0.00
2013-8-19,35.0,34.2,33.8,35.0,34.2,33.8,100,100,98,14.77,14.77,6,1,0,0.00
2013-8-20,37.4,34.6,32.9,33.9,32.3,30.7,98,91,82,14.77,14.77,7,2,0,0.00
2013-8-21,33.8,32.1,30.8,32.9,31.3,29.9,100,96,86,14.77,14.77,6,2,0,0.00
2013-8-22,32.9,27.4,25.0,30.7,26.1,-90.2,100,96,86,14.77,14.77,8,2,0,0.00
2013-8-23,30.2,26.0,22.2,24.5,20.6,17.9,98,81,61,14.77,14.77,16,4,0,0.00
2013-8-24,32.3,26.8,20.9,21.2,17.6,14.3,97,69,49,14.77,14.77,18,5,0,0.00
2013-8-25,24.7,24.0,22.9,22.0,21.5,20.6,94,90,85,14.77,14.77,6,3,0,0.00
2013-8-26,22.9,22.1,21.2,21.9,21.2,20.4,98,96,92,14.77,14.77,6,2,0,0.00
2013-8-27,62.5,26.2,12.1,55.5,24.5,11.3,99,93,75,14.77,14.77,10,4,0,0.00
2013-9-10,52.8,52.8,52.8,51.5,51.5,51.5,95,95,95,0.00,40.00,2,2,0,0.00
2013-9-11,52.8,52.8,52.8,51.5,51.5,51.5,95,95,95,0.00,40.00,2,2,0,0.00
2013-9-16,52.8,52.8,52.8,51.5,51.5,51.5,95,95,95,0.00,40.00,2,2,0,0.00
2013-9-19,55.1,50.4,44.3,40.1,32.7,25.9,84,51,39,14.77,0.00,16,4,0,0.00
2013-9-20,54.6,46.8,38.6,46.1,37.6,28.3,97,71,51,14.77,14.77,22,7,0,0.00
2013-9-21,46.7,44.8,42.8,45.5,40.1,29.6,99,84,53,14.77,14.77,34,8,0,0.00
2013-9-22,48.4,44.2,38.9,32.7,26.5,20.0,62,49,39,14.77,14.77,34,6,0,0.00
2013-9-23,51.6,45.9,40.2,32.8,29.7,24.9,72,53,36,14.77,14.77,20,4,0,0.00
2013-9-24,49.1,41.9,33.2,47.7,37.4,28.7,97,84,61,14.77,14.77,18,5,0,0.00
2013-9-25,54.7,50.1,43.6,49.3,46.7,43.6,100,88,73,14.77,14.77,22,5,0,0.00
2013-9-26,54.8,48.5,44.7,48.4,45.5,40.8,100,90,66,14.77,14.77,20,4,0,0.00
2013-9-27,51.3,47.6,44.7,46.7,45.3,42.7,100,92,72,14.77,14.77,21,4,0,0.00
2013-9-28,50.5,46.2,41.6,45.1,39.5,31.5,87,77,64,14.77,14.77,16,5,0,0.00
2013-9-29,45.8,42.6,41.0,31.8,28.2,25.3,67,56,48,14.77,14.77,24,5,0,0.00
2013-9-30,46.1,42.0,39.3,31.1,28.6,26.4,66,58,51,14.77,14.77,25,5,0,0.00
2013-10-1,50.2,42.3,34.0,39.0,32.5,27.5,94,69,49,14.77,14.77,15,4,0,0.00
2013-10-2,46.8,40.1,31.0,44.9,36.9,30.7,100,88,63,14.77,14.77,28,6,0,0.00
2013-10-3,48.5,47.1,46.0,46.4,44.5,41.9,98,90,83,14.77,14.77,37,13,0,0.00
2013-10-4,54.8,47.3,38.1,47.8,45.1,38.0,100,92,70,14.77,14.77,17,3,0,0.00
2013-10-5,44.9,40.4,34.6,42.4,39.0,34.6,100,95,76,14.77,14.77,8,2,0,0.00
2013-10-6,50.9,45.1,41.3,46.0,41.0,38.3,100,86,63,14.77,14.77,11,3,0,0.00
2013-10-7,52.4,45.1,40.4,48.4,42.9,38.5,100,91,79,14.77,14.77,12,2,0,0.00
2013-10-8,52.9,48.5,44.6,50.7,43.4,35.1,100,83,58,14.77,14.77,28,7,0,0.00
2013-10-9,50.6,46.9,41.9,39.9,36.6,31.1,89,67,57,14.77,14.77,31,9,0,0.00
2013-10-10,51.9,46.9,41.0,45.5,42.3,38.3,97,84,71,14.77,14.77,13,3,0,0.00
2013-10-11,50.6,45.0,36.2,46.0,42.1,36.2,100,90,72,14.77,14.77,17,3,0,0.00
2013-10-12,50.6,48.6,47.4,47.1,45.8,40.3,97,89,68,14.77,14.77,20,7,0,0.00
2013-10-13,50.3,45.0,38.3,42.8,40.1,36.0,96,83,68,14.77,14.77,16,3,0,0.00
2013-10-14,51.4,44.4,37.4,44.9,40.7,36.9,100,87,72,14.77,14.77,17,3,0,0.00
2013-10-15,56.7,52.7,49.0,48.0,46.5,42.8,89,79,71,14.78,14.77,22,6,0,0.00
2013-10-16,51.8,49.1,46.2,49.1,46.0,39.6,99,89,73,14.77,14.77,23,7,0,0.00
2013-10-17,50.5,49.0,48.0,48.9,47.8,46.4,100,95,86,14.77,14.77,22,8,0,0.00
2013-10-18,52.2,49.5,44.3,47.9,42.4,36.5,93,76,66,14.77,14.77,24,9,0,0.00
2013-10-19,50.2,47.9,44.4,47.3,40.7,37.6,97,76,68,14.77,14.77,20,8,0,0.00
2013-10-20,49.5,45.5,40.2,39.3,37.2,34.1,85,72,56,14.77,14.77,16,5,0,0.00
2013-10-21,46.9,39.9,33.2,43.4,37.0,31.9,99,89,70,14.77,14.77,13,2,0,0.00
2013-10-22,45.4,38.3,31.1,39.9,35.5,30.6,98,89,70,14.77,13.41,14,3,0,0.00
2013-10-23,46.6,41.1,33.6,42.1,37.8,33.5,100,88,70,13.46,13.30,16,4,0,0.00
2013-10-24,53.6,46.9,41.6,47.6,41.0,36.2,94,80,60,13.71,13.53,24,8,0,0.00
2013-10-25,52.1,43.1,35.2,43.8,37.5,33.4,93,81,51,30.18,13.50,13,3,0,0.00
2013-10-26,47.1,41.0,31.6,43.6,37.8,31.3,100,88,71,30.30,29.98,35,8,0,0.00
2013-10-27,55.8,48.8,45.7,51.3,47.6,43.3,100,95,79,29.96,29.39,24,8,0,0.00
2013-10-28,54.9,48.3,39.9,50.1,43.6,34.8,100,84,56,29.56,29.32,14,3,0,0.00
2013-10-29,47.3,40.8,34.0,46.2,39.5,33.1,100,95,83,29.60,28.85,41,10,0,0.06
2013-10-30,47.5,44.0,41.2,45.8,42.0,39.6,97,92,84,29.21,28.69,32,8,0,0.00
2013-10-31,45.2,41.7,37.4,40.6,37.4,34.2,98,85,69,29.69,29.24,13,4,0,0.00
2013-11-1,45.1,38.1,30.3,35.5,32.4,28.2,96,80,57,30.06,29.69,13,3,0,0.00
2013-11-2,46.0,40.3,30.0,45.3,38.7,27.9,100,94,77,30.06,29.61,14,4,0,0.00
2013-11-3,45.3,42.2,37.0,43.9,41.5,36.9,100,97,88,29.69,29.40,16,4,0,0.00
2013-11-4,42.1,39.9,38.4,42.0,39.5,37.3,100,98,93,29.41,29.26,8,3,0,0.00
2013-11-5,44.6,40.3,31.7,40.8,30.9,22.9,99,70,43,30.01,29.43,24,4,0,0.00
2013-11-6,40.7,33.2,27.9,37.7,28.4,24.5,90,82,67,30.06,29.81,11,2,0,0.00
2013-11-7,43.5,40.6,36.5,41.9,38.8,35.9,100,93,79,29.86,29.56,14,5,0,0.00
2013-11-8,44.3,39.2,34.8,39.0,36.0,33.9,100,88,69,30.24,29.89,12,3,0,0.00
2013-11-9,51.7,45.5,38.1,42.6,41.0,36.9,98,84,66,30.24,30.09,13,3,0,0.00
2013-11-10,45.2,41.5,39.2,44.5,38.4,26.9,99,89,60,30.07,29.76,16,3,0,0.00
2013-11-11,39.9,36.5,32.2,30.8,25.5,19.8,79,64,57,30.08,29.93,15,4,0,0.00
2013-11-12,43.7,35.6,30.0,28.9,22.4,16.0,78,59,33,30.14,30.07,12,3,0,0.00
2013-11-13,54.8,43.2,35.8,48.4,40.4,27.5,99,90,70,30.24,30.11,19,3,0,0.00
2013-11-14,54.5,48.9,42.7,47.6,41.8,35.2,81,76,72,30.21,30.01,20,7,0,0.00
2013-11-15,47.6,43.5,35.8,41.5,37.7,32.9,89,79,74,30.10,29.93,17,4,0,0.00
2013-11-16,43.6,35.3,29.9,39.1,19.8,11.9,84,53,37,30.27,29.98,19,5,0,0.00
2013-11-17,32.3,28.2,23.7,17.9,15.3,11.7,68,58,48,30.26,30.20,14,3,0,0.00
2013-11-18,31.9,24.6,21.3,18.1,14.9,10.9,77,66,44,30.21,30.16,10,2,0,0.00
2013-11-19,27.4,24.5,20.1,21.9,18.9,13.6,86,79,71,30.16,30.00,5,1,0,0.00
2013-11-20,34.1,28.5,23.7,34.1,26.7,18.7,100,92,80,29.98,29.63,40,10,0,0.00
2013-11-21,44.7,35.7,30.5,44.6,35.7,30.5,100,100,100,29.68,28.91,30,10,0,0.00
2013-11-22,38.1,30.5,24.1,38.1,24.8,14.5,100,81,49,29.54,29.02,18,5,0,0.00
2013-11-23,38.4,30.2,22.9,35.0,25.4,15.9,97,82,63,29.92,29.55,10,2,0,0.00
2013-11-24,42.0,40.2,35.5,39.4,37.5,33.4,98,90,82,29.92,29.81,20,7,0,0.00
2013-11-25,41.1,37.3,31.0,39.4,36.5,31.0,100,97,87,29.80,29.69,18,4,0,0.00
2013-11-26,38.3,33.8,31.4,37.7,33.8,31.4,100,100,97,29.91,29.80,7,2,0,0.00
2013-11-27,38.5,33.2,29.9,34.0,30.5,22.7,100,90,70,29.92,29.81,11,3,0,0.00
2013-11-28,33.1,26.7,22.5,24.6,14.3,7.2,78,59,47,30.01,29.80,18,4,0,0.00
2013-11-29,30.2,24.5,20.3,16.3,11.8,4.3,81,58,41,30.13,30.02,12,3,0,0.00
2013-11-30,27.7,23.1,18.9,21.1,16.2,13.4,88,74,64,30.37,30.14,15,2,0,0.00
2013-12-1,32.9,24.8,19.4,26.8,20.4,13.3,100,83,62,30.53,30.36,15,4,0,0.00
2013-12-2,34.7,23.5,18.6,31.9,23.2,18.3,100,98,86,30.68,30.54,6,2,0,0.00
2013-12-3,39.9,31.8,23.6,36.5,30.1,23.4,100,94,81,30.68,30.45,10,3,0,0.00
2013-12-4,42.8,41.3,38.4,42.7,40.3,35.5,100,96,85,30.43,30.25,15,7,0,0.00
2013-12-5,44.3,42.7,39.8,44.3,42.7,39.8,100,100,100,30.38,30.24,17,7,0,0.00
2013-12-6,45.6,43.3,40.7,45.6,43.2,38.4,100,99,91,30.43,30.38,24,11,0,0.00
2013-12-7,42.5,39.7,29.8,39.6,36.0,29.7,100,86,74,30.44,30.39,19,6,0,0.00
2013-12-8,41.5,31.2,26.7,40.0,31.1,26.5,100,100,91,30.46,30.30,10,2,0,0.00
2013-12-9,41.5,35.5,31.8,39.3,35.4,31.8,100,100,92,30.32,30.16,8,2,0,0.00
2013-12-10,41.7,40.3,38.0,41.4,40.1,38.0,100,99,94,30.14,29.60,28,13,0,0.00
2013-12-11,41.1,34.8,28.8,39.2,30.1,22.3,96,83,61,29.60,29.44,28,4,0,0.00
2013-12-12,28.8,21.9,16.2,22.7,13.8,7.2,80,70,51,29.47,29.42,11,2,0,0.00
2013-12-13,27.8,22.8,17.2,25.2,19.0,8.9,93,85,65,29.42,28.98,11,4,0,0.00
2013-12-14,25.6,19.8,15.4,23.0,13.5,5.4,90,76,59,29.24,28.95,21,6,0,0.00
2013-12-15,21.9,18.7,16.1,17.3,11.1,3.2,91,72,50,29.91,29.24,26,7,0,0.00
2013-12-16,22.5,19.2,13.9,18.5,11.7,1.9,87,72,47,30.12,29.91,7,2,0,0.00
2013-12-17,28.5,21.2,13.5,21.2,16.8,12.1,95,83,67,30.32,30.12,7,2,0,0.00
2013-12-18,36.3,28.9,13.3,36.3,27.9,11.8,100,96,75,30.33,29.28,28,9,0,0.01
2013-12-19,38.8,36.8,34.1,38.3,36.6,34.1,100,99,95,29.63,29.34,18,6,0,0.00
2013-12-20,42.4,37.5,33.9,41.9,37.5,33.9,100,100,96,29.61,29.53,9,2,0,0.00
2013-12-21,39.8,37.1,34.8,39.8,37.1,34.8,100,100,100,29.60,29.45,12,3,0,0.00
2013-12-22,37.6,32.2,28.0,37.6,26.1,8.0,100,79,40,29.85,29.45,16,5,0,0.00
2013-12-23,31.6,27.5,24.0,23.1,17.7,13.6,81,66,51,30.07,29.85,19,2,0,0.00
2013-12-24,37.0,32.6,29.7,33.9,29.4,21.6,100,88,68,29.99,29.60,37,13,0,0.00
2013-12-25,31.0,28.6,24.2,29.3,27.1,23.1,97,94,87,29.69,29.66,8,2,0,0.00
2013-12-26,30.3,27.3,23.7,29.8,26.8,23.0,100,98,90,29.73,29.68,7,1,0,0.00
2013-12-27,41.1,35.2,26.5,40.9,35.1,26.2,100,100,96,29.75,29.62,24,8,0,0.01
2013-12-28,37.4,33.5,31.8,37.4,33.5,31.8,100,100,99,29.89,29.76,7,2,0,0.00
2013-12-29,39.8,36.5,32.0,39.8,36.5,32.0,100,100,99,29.86,29.51,24,7,0,0.00
2013-12-30,39.6,36.7,31.9,39.6,36.7,31.9,100,100,100,29.52,29.39,21,5,0,0.00
2013-12-31,43.2,39.0,32.5,41.2,36.9,32.2,100,92,69,29.52,28.81,40,10,0,0.00
2014-1-1,41.4,38.4,34.5,37.2,34.1,30.9,92,84,75,29.56,28.81,19,7,0,0.00
2014-1-2,39.6,34.2,29.3,33.5,29.9,28.0,95,84,70,30.06,29.60,20,4,0,0.00